Regional Weather Roundup
Issued by NWS

Home | Current Version | Previous Version | Graphics & Text | Print | Product List | Glossary On
Versions: 1 2 3 4 5 6 7 8 9 10 11 12 13 14 15 16 17 18 19 20 21 22 23 24 25 26 27 28 29 30 31 32 33 34 35 36 37 38 39 40 41 42 43 44 45 46 47 48 49 50
000
ASUS43 KFSD 271710
RWRSD

WEATHER ROUNDUP FOR SOUTH DAKOTA
NATIONAL WEATHER SERVICE SIOUX FALLS SD
1200 PM CDT MON JUL 27 2015

NOTE: "FAIR" INDICATES FEW OR NO CLOUDS BELOW 12,000 FEET WITH NO
SIGNIFICANT WEATHER AND/OR OBSTRUCTIONS TO VISIBILITY.


SDZ001>005-009-010-012>017-271800-
NORTHWEST AND NORTH CENTRAL SOUTH DAKOTA

CITY           SKY/WX    TMP DP  RH WIND       PRES   REMARKS
BUFFALO          N/A     81  60  48 S13G21    29.68S
FAITH            N/A     84  62  47 S22G31    29.75R
MOBRIDGE       SUNNY     86  71  60 S16       29.75F
$$

SDZ012>016-024>037-041>051-057-063-072>074-271800-
SOUTHWEST AND SOUTH CENTRAL SOUTH DAKOTA

CITY           SKY/WX    TMP DP  RH WIND       PRES   REMARKS
RAPID CTY ARPT MOSUNNY   83  65  54 S16       29.76F
PIERRE         SUNNY     89  64  43 SE16      29.77F
CUSTER         SUNNY     85  50  29 W8        29.93S
ELLSWORTH AFB  MOSUNNY   83  64  52 S21       29.76S
PHILIP         SUNNY     84  66  54 SE17G25   29.76F
PINE RIDGE     SUNNY     85  65  51 SE8       29.80F
SPEARFISH      FAIR      77  64  65 NW5       29.79R
WINNER         FAIR      88  62  41 SE12      29.82F
$$

SDZ004>011-016>023-039-040-271800-
NORTHEAST SOUTH DAKOTA

CITY           SKY/WX    TMP DP  RH WIND       PRES   REMARKS
ABERDEEN       PTSUNNY   85  76  74 S15       29.81F
WATERTOWN      MOSUNNY   86  74  67 SE18      29.85F
BROOKINGS      SUNNY     82  73  74 S17       29.87F
SISSETON         N/A     79  74  84 SE9       29.84F
$$

SDZ017-020-022-023-036>040-048>070-271800-
SOUTHEAST SOUTH DAKOTA

CITY           SKY/WX    TMP DP  RH WIND       PRES   REMARKS
SIOUX FALLS    MOSUNNY   83  68  60 S17       29.86F
HURON          SUNNY     86  73  65 SE13G22   29.79F
CHAMBERLAIN    SUNNY     86  68  55 SE13G21   29.81F
MITCHELL       SUNNY     85  74  69 S16       29.82F
YANKTON        PTSUNNY   81  73  78 SE14      29.86R
$$

ABBREVIATIONS USED IN REMARKS
   TC - TEMPERATURE IN CELSIUS
  WCI - WIND CHILL INDEX
   HX - HEAT INDEX
  VSB - VISIBILITY




USA.gov is the U.S. government's official web portal to all federal, state and local government web resources and services.